Lynchburg, VA

2:24 AM EST on November 17, 2019 (GMT -0500)
Lynchburg Regional-Glenn

Weather History for KLYH - September, 2019

Change the Weather History Date:

Friday, September 20, 2019

  Actual Average Record
Temperature  
Mean Temperature 63 °F 65 °F  
Max Temperature 81 °F 77 °F 98 °F (1895)
Min Temperature 45 °F 54 °F 38 °F (1916)
Degree Days  
Heating Degree Days 2 2  
Month to date heating degree days 5 18  
Since 1 July heating degree days 5 21  
Cooling Degree Days 0 3  
Month to date cooling degree days 201 98  
Year to date cooling degree days 1416 996  
Growing Degree Days 12 (Base 50)    
Moisture  
Dew Point 52 °F    
Average Humidity 64    
Maximum Humidity 89    
Minimum Humidity 39    
Precipitation  
Precipitation 0.00 in 0.13 in 1.89 in (1961)
Month to date precipitation 0.06 2.66  
Year to date precipitation 27.64 30.59  
Snow  
Snow 0.00 in - - ()
Month to date snowfall 0.0  
Since 1 July snowfall 0.0  
Since 1 September snowfall 0.0  
Snow Depth 0.00 in    
Sea Level Pressure  
Sea Level Pressure 30.28 in    
Wind  
Wind Speed 3 mph (SSW)    
Max Wind Speed 12 mph    
Max Gust Speed 20 mph    
Visibility 10 miles    
Events      
T = Trace of Precipitation, MM = Missing Value Source: NWS Daily Summary

Daily Weather History Graph

Daily Weather History Graph

Search for Another Location

Airport or City:

Astronomy

Sep. 20, 2019 Rise Set
Actual Time 7:02 AM EDT 7:17 PM EDT
Civil Twilight 6:36 AM EDT 7:43 PM EDT
Nautical Twilight 6:06 AM EDT 8:13 PM EDT
Astronomical Twilight 5:35 AM EDT 8:44 PM EDT
Moon 11:13 PM EDT (9/20) 12:58 PM EDT (9/20)
Length of Visible Light 13h 06m
Length of Day
12h 14m
Waning Gibbous, 65% of the Moon is Illuminated
Sep 20
Waning Gibbous
Sep 21
Last Quarter
Sep 28
New
Oct 5
First Quarter
Oct 13
Full

Hourly Weather History & Observations

Time (EDT) Temp. Dew Point Humidity Pressure Visibility Wind Dir Wind Speed Gust Speed Precip Events Conditions
12:54 AM 50.0 °F - N/A% 30.30 in 10.0 mi Calm Calm - N/A   Clear
1:54 AM 48.9 °F - N/A% 30.30 in 10.0 mi Calm Calm - N/A   Clear
2:54 AM 48.9 °F - N/A% 30.30 in 10.0 mi Calm Calm - N/A   Clear
3:54 AM 48.0 °F - N/A% 30.30 in 10.0 mi Calm Calm - N/A   Clear
4:54 AM 48.0 °F - N/A% 30.30 in 8.0 mi Calm Calm - N/A   Clear
5:54 AM 46.9 °F - N/A% 30.31 in 10.0 mi Calm Calm - N/A   Clear
6:54 AM 46.9 °F - N/A% 30.32 in 10.0 mi Calm Calm - N/A   Clear
7:54 AM 51.1 °F 48.9 °F 92% 30.34 in 10.0 mi Calm Calm - N/A   Clear
8:54 AM 57.0 °F 52.0 °F 83% 30.35 in 10.0 mi South 3.5 mph - N/A   Clear
9:54 AM 63.0 °F 52.0 °F 67% 30.34 in 10.0 mi SSW 8.1 mph - N/A   Clear
10:54 AM 66.9 °F 51.1 °F 57% 30.33 in 10.0 mi SSW 10.4 mph - N/A   Clear
11:54 AM 71.1 °F 53.1 °F 53% 30.32 in 10.0 mi Variable 6.9 mph - N/A   Clear
12:54 PM 73.9 °F 52.0 °F 46% 30.30 in 10.0 mi North - - N/A   Clear
1:54 PM 77.0 °F 54.0 °F 45% 30.27 in 10.0 mi Variable 4.6 mph - N/A   Clear
2:54 PM 77.0 °F 51.1 °F 40% 30.25 in 10.0 mi SSW 6.9 mph - N/A   Clear
3:54 PM 79.0 °F 51.1 °F 38% 30.23 in 10.0 mi Variable 4.6 mph - N/A   Clear
4:54 PM 79.0 °F 51.1 °F 38% 30.22 in 10.0 mi West 3.5 mph - N/A   Clear
5:54 PM 78.1 °F 53.1 °F 42% 30.23 in 10.0 mi SSW 6.9 mph - N/A   Clear
6:54 PM 73.0 °F 54.0 °F 51% 30.24 in 10.0 mi SW 4.6 mph - N/A   Clear
7:54 PM 66.0 °F 55.0 °F 68% 30.24 in 10.0 mi Calm Calm - N/A   Clear
9:54 PM 63.0 °F 55.0 °F 75% 30.25 in 10.0 mi Calm Calm - N/A   Clear
10:54 PM 61.0 °F 54.0 °F 78% 30.26 in 10.0 mi Calm Calm - N/A   Clear
11:54 PM 60.1 °F 55.0 °F 83% 30.25 in 10.0 mi Calm Calm - N/A   Clear